Delta, CO

12:17 PM MDT on October 01, 2016 (GMT -0600)
Delta

Weather History for KAJZ - February, 2014

Change the Weather History Date:

Friday, February 14, 2014

  Actual Average (KMTJ) Record (KMTJ)
Temperature  
Mean Temperature 44 °F 32 °F  
Max Temperature 53 °F 44 °F 64 °F (2015)
Min Temperature 34 °F 21 °F 3 °F (2004)
Degree Days  
Heating Degree Days 22 33  
Month to date heating degree days 483  
Since 1 July heating degree days 4288  
Cooling Degree Days 0 0  
Month to date cooling degree days 0  
Year to date cooling degree days 0  
Moisture  
Dew Point 34 °F    
Average Humidity 74    
Maximum Humidity 90    
Minimum Humidity 49    
Precipitation  
Precipitation 0.00 in 0.02 in 0.04 in (2002)
Month to date precipitation 0.25  
Year to date precipitation 0.90  
Sea Level Pressure  
Sea Level Pressure 30.12 in    
Wind  
Wind Speed 4 mph (NE)    
Max Wind Speed 10 mph    
Max Gust Speed -    
Visibility 10 miles    
Events      
T = Trace of Precipitation, MM = Missing Value Source: NWS Daily Summary

Daily Weather History Graph

Daily Weather History Graph

Search for Another Location

Airport or City:

Trip Planner

Search our weather history database for the weather conditions in past years. The results will help you decide how hot, cold, wet, or windy it might be!

Date:

Astronomy

Feb. 14, 2014 Rise Set
Actual Time 7:04 AM MST 5:48 PM MST
Civil Twilight 6:37 AM MST 6:16 PM MST
Nautical Twilight 6:05 AM MST 6:47 PM MST
Astronomical Twilight 5:35 AM MST 7:18 PM MST
Moon 5:55 PM MST (2/14) 6:33 AM MST (2/14)
Length of Visible Light 11h 39m
Length of Day
10h 44m
Full, 100% of the Moon is Illuminated
Feb 14
Full
Feb 14
Full
Feb 22
Last Quarter
Mar 1
New
Mar 8
First Quarter

Hourly Weather History & Observations

Time (MST) Temp. Windchill Dew Point Humidity Pressure Visibility Wind Dir Wind Speed Gust Speed Precip Events Conditions
12:15 AM 36.0 °F 31.1 °F 32.7 °F 88% 30.06 in 10.0 mi NNE 5.8 mph - N/A   Clear
12:35 AM 36.1 °F 29.9 °F 32.9 °F 88% 30.07 in 10.0 mi North 8.1 mph - N/A   Clear
12:55 AM 35.2 °F 30.3 °F 32.0 °F 88% 30.07 in 10.0 mi NE 5.8 mph - N/A   Clear
1:15 AM 35.6 °F 30.7 °F 32.0 °F 87% 30.08 in 10.0 mi NNE 5.8 mph - N/A   Clear
1:35 AM 36.3 °F 30.8 °F 32.0 °F 84% 30.08 in 10.0 mi North 6.9 mph - N/A   Clear
1:55 AM 36.5 °F 31.8 °F 32.2 °F 84% 30.10 in 10.0 mi NNE 5.8 mph - N/A   Clear
2:15 AM 36.5 °F - 32.0 °F 84% 30.09 in 10.0 mi Calm Calm - N/A   Clear
2:35 AM 36.0 °F - 32.0 °F 86% 30.10 in 10.0 mi Calm Calm - N/A   Clear
2:55 AM 36.1 °F 33.5 °F 31.6 °F 84% 30.10 in 10.0 mi East 3.5 mph - N/A   Clear
3:15 AM 34.5 °F 29.4 °F 31.1 °F 87% 30.10 in 10.0 mi North 5.8 mph - N/A   Clear
3:35 AM 35.6 °F 32.8 °F 32.0 °F 87% 30.10 in 10.0 mi NNE 3.5 mph - N/A   Clear
3:55 AM 35.2 °F 29.5 °F 31.6 °F 87% 30.10 in 10.0 mi NNE 6.9 mph - N/A   Mostly Cloudy
4:15 AM 36.9 °F 32.2 °F 32.0 °F 83% 30.09 in 10.0 mi North 5.8 mph - N/A   Overcast
4:35 AM 36.1 °F 30.6 °F 32.0 °F 85% 30.10 in 10.0 mi NNE 6.9 mph - N/A   Overcast
4:55 AM 37.8 °F 35.3 °F 32.2 °F 80% 30.10 in 10.0 mi ENE 3.5 mph - N/A   Mostly Cloudy
5:15 AM 35.8 °F - 32.0 °F 86% 30.11 in 10.0 mi Calm Calm - N/A   Overcast
5:35 AM 36.9 °F 31.4 °F 32.2 °F 83% 30.12 in 10.0 mi North 6.9 mph - N/A   Overcast
5:55 AM 36.9 °F 32.2 °F 32.0 °F 83% 30.11 in 10.0 mi NNE 5.8 mph - N/A   Mostly Cloudy
6:15 AM 36.3 °F - 32.0 °F 84% 30.12 in 10.0 mi Calm Calm - N/A   Scattered Clouds
6:35 AM 34.5 °F - 31.6 °F 89% 30.13 in 10.0 mi Calm Calm - N/A   Clear
6:55 AM 34.5 °F - 31.6 °F 89% 30.14 in 10.0 mi Calm Calm - N/A   Mostly Cloudy
7:15 AM 34.2 °F - 31.6 °F 90% 30.15 in 10.0 mi Calm Calm - N/A   Overcast
7:35 AM 34.9 °F - 32.0 °F 89% 30.14 in 10.0 mi Calm Calm - N/A   Overcast
7:55 AM 35.1 °F - 32.0 °F 89% 30.15 in 10.0 mi Calm Calm - N/A   Overcast
8:15 AM 35.6 °F - 32.2 °F 87% 30.16 in 10.0 mi Calm Calm - N/A   Overcast
8:35 AM 36.7 °F 32.9 °F 32.9 °F 86% 30.16 in 10.0 mi NNE 4.6 mph - N/A   Overcast
8:55 AM 38.3 °F - 34.2 °F 85% 30.17 in 10.0 mi Calm Calm - N/A   Overcast
9:15 AM 39.7 °F - 34.2 °F 80% 30.17 in 10.0 mi Calm Calm - N/A   Overcast
9:35 AM 38.5 °F - 34.3 °F 85% 30.17 in 10.0 mi Calm Calm - N/A   Overcast
9:55 AM 39.4 °F - 35.4 °F 86% 30.17 in 10.0 mi Calm Calm - N/A   Overcast
10:15 AM 39.2 °F - 34.5 °F 83% 30.18 in 7.0 mi Calm Calm - N/A   Overcast
10:35 AM 42.8 °F 41.1 °F 35.6 °F 76% 30.17 in 10.0 mi ESE 3.5 mph - N/A   Overcast
10:55 AM 42.4 °F - 36.3 °F 79% 30.17 in 10.0 mi Calm Calm - N/A   Overcast
11:15 AM 43.2 °F - 36.3 °F 77% 30.18 in 10.0 mi Calm Calm - N/A   Overcast
11:35 AM 44.1 °F - 36.9 °F 76% 30.16 in 10.0 mi Calm Calm - N/A   Overcast
11:55 AM 46.6 °F - 37.6 °F 71% 30.16 in 10.0 mi North 4.6 mph - N/A   Overcast
12:15 PM 48.2 °F - 36.7 °F 64% 30.15 in 10.0 mi Calm Calm - N/A   Overcast
12:35 PM 49.5 °F - 37.6 °F 64% 30.14 in 10.0 mi East 5.8 mph - N/A   Overcast
12:55 PM 50.2 °F - 35.4 °F 57% 30.14 in 10.0 mi East 5.8 mph - N/A   Overcast
1:15 PM 50.9 °F - 35.1 °F 55% 30.14 in 10.0 mi Calm Calm - N/A   Overcast
1:35 PM 51.4 °F - 34.0 °F 51% 30.14 in 10.0 mi East 3.5 mph - N/A   Overcast
1:55 PM 51.8 °F - 33.4 °F 50% 30.13 in 10.0 mi Calm Calm - N/A   Overcast
2:15 PM 51.8 °F - 33.1 °F 49% 30.12 in 10.0 mi ENE 4.6 mph - N/A   Overcast
2:35 PM 52.2 °F - 33.8 °F 50% 30.12 in 10.0 mi ENE 4.6 mph - N/A   Overcast
2:55 PM 52.2 °F - 33.8 °F 50% 30.12 in 10.0 mi ENE 4.6 mph - N/A   Overcast
3:15 PM 52.5 °F - 34.2 °F 50% 30.12 in 10.0 mi ENE 6.9 mph - N/A   Overcast
3:35 PM 52.2 °F - 34.9 °F 52% 30.12 in 10.0 mi ENE 5.8 mph - N/A   Overcast
3:55 PM 53.6 °F - 34.7 °F 49% 30.12 in 10.0 mi East 5.8 mph - N/A   Overcast
4:15 PM 52.7 °F - 34.5 °F 50% 30.11 in 10.0 mi East 4.6 mph - N/A   Mostly Cloudy
4:35 PM 51.8 °F - 35.2 °F 53% 30.11 in 10.0 mi East 3.5 mph - N/A   Scattered Clouds
4:55 PM 51.3 °F - 36.1 °F 56% 30.11 in 10.0 mi ENE 3.5 mph - N/A   Scattered Clouds
5:15 PM 50.7 °F - 38.1 °F 62% 30.12 in 10.0 mi Calm Calm - N/A   Overcast
5:35 PM 49.6 °F - 38.5 °F 65% 30.11 in 10.0 mi ENE 4.6 mph - N/A   Overcast
5:55 PM 48.4 °F - 37.4 °F 66% 30.11 in 10.0 mi North 3.5 mph - N/A   Overcast
6:15 PM 47.3 °F - 37.6 °F 69% 30.11 in 10.0 mi NNE 5.8 mph - N/A   Overcast
6:35 PM 47.7 °F - 37.6 °F 68% 30.12 in 10.0 mi ENE 5.8 mph - N/A   Overcast
6:55 PM 47.5 °F - 37.2 °F 68% 30.12 in 10.0 mi ENE 5.8 mph - N/A   Overcast
7:15 PM 46.9 °F - 37.4 °F 69% 30.12 in 10.0 mi ENE 6.9 mph - N/A   Overcast
7:35 PM 47.3 °F - 36.1 °F 65% 30.11 in 10.0 mi NE 4.6 mph - N/A   Overcast
7:55 PM 46.9 °F - 35.8 °F 65% 30.11 in 10.0 mi NE 6.9 mph - N/A   Overcast
8:15 PM 45.1 °F 42.8 °F 36.5 °F 72% 30.11 in 10.0 mi NE 4.6 mph - N/A   Overcast
8:35 PM 45.5 °F 42.5 °F 36.1 °F 70% 30.11 in 10.0 mi ENE 5.8 mph - N/A   Overcast
8:55 PM 45.5 °F 41.8 °F 36.0 °F 69% 30.11 in 10.0 mi NE 6.9 mph - N/A   Overcast
9:15 PM 44.6 °F 40.2 °F 35.2 °F 70% 30.10 in 10.0 mi NE 8.1 mph - N/A   Mostly Cloudy
9:35 PM 43.0 °F 41.3 °F 34.9 °F 73% 30.10 in 10.0 mi ENE 3.5 mph - N/A   Scattered Clouds
9:55 PM 41.9 °F 40.0 °F 34.5 °F 75% 30.10 in 10.0 mi NE 3.5 mph - N/A   Clear
10:15 PM 41.5 °F - 34.7 °F 77% 30.10 in 10.0 mi Calm Calm - N/A   Clear
10:35 PM 41.4 °F 36.8 °F 34.7 °F 77% 30.09 in 10.0 mi ENE 6.9 mph - N/A   Clear
10:55 PM 41.7 °F 35.6 °F 34.2 °F 75% 30.09 in 10.0 mi NE 10.4 mph - N/A   Clear
11:15 PM 42.1 °F 37.7 °F 33.3 °F 71% 30.09 in 10.0 mi ENE 6.9 mph - N/A   Clear
11:35 PM 40.6 °F - 33.6 °F 76% 30.09 in 10.0 mi Calm Calm - N/A   Clear
11:55 PM 39.4 °F - 33.6 °F 80% 30.10 in 10.0 mi Calm Calm - N/A   Clear